PRIVATE WETTERSTATION BILLIGHEIM-ALLFELD                       ZURCK
Wetterdaten: Montag, 19.06.2017
Datum Zeit Temp. A. Temp. A. min Temp. A. max Feuchte A. Luftdruck Regen Wind Richtung Richtung Sonnenschein ET Solar Taupunkt Windchill Windben Empfang
19.06.2017 00:00 16,6 C 16,6 C 16,9 C 74 % 1021,4 hPa 0,0 l/m 0,0 km/h (0 Bft) S 180 0 min 0,025 mm 0 W/m 11,9 C 16,6 C 3,2 km/h (1 Bft) 98 %
19.06.2017 00:10 16,6 C 16,6 C 16,6 C 74 % 1021,3 hPa 0,0 l/m 0,0 km/h (0 Bft) N 360 0 min 0,000 mm 0 W/m 11,9 C 16,6 C 4,8 km/h (1 Bft) 98 %
19.06.2017 00:20 16,9 C 16,6 C 16,9 C 74 % 1021,3 hPa 0,0 l/m 0,0 km/h (0 Bft) SO 135 0 min 0,000 mm 0 W/m 12,2 C 16,9 C 3,2 km/h (1 Bft) 98 %
19.06.2017 00:30 17,2 C 16,9 C 17,2 C 73 % 1021,3 hPa 0,0 l/m 0,0 km/h (0 Bft) SO 135 0 min 0,000 mm 0 W/m 12,3 C 17,2 C 4,8 km/h (1 Bft) 98 %
19.06.2017 00:40 17,2 C 17,2 C 17,2 C 72 % 1021,3 hPa 0,0 l/m 0,0 km/h (0 Bft) O 90 0 min 0,000 mm 0 W/m 12,1 C 17,2 C 4,8 km/h (1 Bft) 97 %
19.06.2017 00:50 17,2 C 17,2 C 17,3 C 72 % 1021,2 hPa 0,0 l/m 0,0 km/h (0 Bft) O 90 0 min 0,000 mm 0 W/m 12,1 C 17,2 C 3,2 km/h (1 Bft) 98 %
19.06.2017 01:00 17,1 C 17,1 C 17,2 C 72 % 1021,1 hPa 0,0 l/m 0,0 km/h (0 Bft) O-SO 112 0 min 0,025 mm 0 W/m 12,0 C 17,1 C 4,8 km/h (1 Bft) 97 %
19.06.2017 01:10 16,9 C 16,9 C 17,1 C 72 % 1021,0 hPa 0,0 l/m 0,0 km/h (0 Bft) NO 45 0 min 0,000 mm 0 W/m 11,8 C 16,9 C 8,0 km/h (2 Bft) 98 %
19.06.2017 01:20 16,8 C 16,8 C 16,9 C 72 % 1020,9 hPa 0,0 l/m 1,6 km/h (1 Bft) O-SO 112 0 min 0,000 mm 0 W/m 11,7 C 16,8 C 6,4 km/h (2 Bft) 98 %
19.06.2017 01:30 16,9 C 16,8 C 16,9 C 72 % 1021,0 hPa 0,0 l/m 1,6 km/h (1 Bft) O-SO 112 0 min 0,000 mm 0 W/m 11,8 C 16,9 C 9,7 km/h (2 Bft) 97 %
19.06.2017 01:40 17,1 C 16,9 C 17,1 C 70 % 1020,8 hPa 0,0 l/m 1,6 km/h (1 Bft) O-SO 112 0 min 0,000 mm 0 W/m 11,6 C 17,1 C 6,4 km/h (2 Bft) 98 %
19.06.2017 01:50 17,1 C 17,1 C 17,2 C 70 % 1020,8 hPa 0,0 l/m 0,0 km/h (0 Bft) O-NO 67 0 min 0,000 mm 0 W/m 11,6 C 17,1 C 4,8 km/h (1 Bft) 97 %
19.06.2017 02:00 16,9 C 16,9 C 17,1 C 71 % 1020,8 hPa 0,0 l/m 0,0 km/h (0 Bft) N 0 0 min 0,025 mm 0 W/m 11,6 C 16,9 C 0,0 km/h (0 Bft) 98 %
19.06.2017 02:10 16,5 C 16,5 C 16,9 C 74 % 1020,8 hPa 0,0 l/m 0,0 km/h (0 Bft) N 0 0 min 0,000 mm 0 W/m 11,8 C 16,5 C 0,0 km/h (0 Bft) 98 %
19.06.2017 02:20 15,9 C 15,9 C 16,5 C 76 % 1020,8 hPa 0,0 l/m 0,0 km/h (0 Bft) O-NO 67 0 min 0,000 mm 0 W/m 11,7 C 15,9 C 4,8 km/h (1 Bft) 97 %
19.06.2017 02:30 15,2 C 15,2 C 15,9 C 78 % 1020,8 hPa 0,0 l/m 0,0 km/h (0 Bft) N 0 0 min 0,000 mm 0 W/m 11,4 C 15,2 C 0,0 km/h (0 Bft) 98 %
19.06.2017 02:40 14,8 C 14,8 C 15,2 C 80 % 1020,6 hPa 0,0 l/m 0,0 km/h (0 Bft) N 0 0 min 0,000 mm 0 W/m 11,4 C 14,8 C 0,0 km/h (0 Bft) 97 %
19.06.2017 02:50 14,3 C 14,3 C 14,8 C 82 % 1020,6 hPa 0,0 l/m 0,0 km/h (0 Bft) N 0 0 min 0,000 mm 0 W/m 11,3 C 14,3 C 0,0 km/h (0 Bft) 98 %
19.06.2017 03:00 13,9 C 13,9 C 14,3 C 83 % 1020,6 hPa 0,0 l/m 0,0 km/h (0 Bft) O-NO 67 0 min 0,025 mm 0 W/m 11,1 C 13,9 C 3,2 km/h (1 Bft) 97 %
19.06.2017 03:10 13,8 C 13,8 C 13,9 C 84 % 1020,5 hPa 0,0 l/m 0,0 km/h (0 Bft) S-SO 157 0 min 0,000 mm 0 W/m 11,1 C 13,8 C 3,2 km/h (1 Bft) 98 %
19.06.2017 03:20 13,7 C 13,7 C 13,8 C 84 % 1020,5 hPa 0,0 l/m 0,0 km/h (0 Bft) SW 225 0 min 0,000 mm 0 W/m 11,0 C 13,7 C 3,2 km/h (1 Bft) 98 %
19.06.2017 03:30 13,6 C 13,6 C 13,7 C 84 % 1020,4 hPa 0,0 l/m 0,0 km/h (0 Bft) N 0 0 min 0,000 mm 0 W/m 10,9 C 13,6 C 0,0 km/h (0 Bft) 97 %
19.06.2017 03:40 13,3 C 13,3 C 13,6 C 85 % 1020,3 hPa 0,0 l/m 0,0 km/h (0 Bft) N 0 0 min 0,000 mm 0 W/m 10,8 C 13,3 C 0,0 km/h (0 Bft) 98 %
19.06.2017 03:50 13,1 C 13,1 C 13,3 C 86 % 1020,3 hPa 0,0 l/m 0,0 km/h (0 Bft) W-NW 292 0 min 0,000 mm 0 W/m 10,8 C 13,1 C 3,2 km/h (1 Bft) 97 %
19.06.2017 04:00 12,9 C 12,9 C 13,1 C 86 % 1020,3 hPa 0,0 l/m 0,0 km/h (0 Bft) N 0 0 min 0,000 mm 0 W/m 10,6 C 12,9 C 0,0 km/h (0 Bft) 98 %
19.06.2017 04:10 12,7 C 12,7 C 12,9 C 87 % 1020,4 hPa 0,0 l/m 0,0 km/h (0 Bft) N 0 0 min 0,000 mm 0 W/m 10,6 C 12,7 C 0,0 km/h (0 Bft) 97 %
19.06.2017 04:20 12,4 C 12,4 C 12,7 C 87 % 1020,2 hPa 0,0 l/m 0,0 km/h (0 Bft) W-NW 292 0 min 0,000 mm 0 W/m 10,3 C 12,4 C 4,8 km/h (1 Bft) 98 %
19.06.2017 04:30 12,2 C 12,2 C 12,4 C 88 % 1020,1 hPa 0,0 l/m 0,0 km/h (0 Bft) W-NW 292 0 min 0,000 mm 0 W/m 10,3 C 12,2 C 3,2 km/h (1 Bft) 98 %
19.06.2017 04:40 12,1 C 12,1 C 12,2 C 88 % 1020,3 hPa 0,0 l/m 0,0 km/h (0 Bft) W-NW 292 0 min 0,000 mm 0 W/m 10,2 C 12,1 C 6,4 km/h (2 Bft) 98 %
19.06.2017 04:50 12,0 C 12,0 C 12,1 C 88 % 1020,3 hPa 0,0 l/m 0,0 km/h (0 Bft) N 0 0 min 0,000 mm 0 W/m 10,1 C 12,0 C 0,0 km/h (0 Bft) 98 %
19.06.2017 05:00 11,9 C 11,9 C 12,0 C 88 % 1020,3 hPa 0,0 l/m 0,0 km/h (0 Bft) N 0 0 min 0,000 mm 0 W/m 10,0 C 11,9 C 0,0 km/h (0 Bft) 97 %
19.06.2017 05:10 11,7 C 11,7 C 11,9 C 89 % 1020,2 hPa 0,0 l/m 0,0 km/h (0 Bft) W-NW 292 0 min 0,000 mm 0 W/m 9,9 C 11,7 C 1,6 km/h (1 Bft) 98 %
19.06.2017 05:20 11,6 C 11,6 C 11,7 C 89 % 1020,3 hPa 0,0 l/m 0,0 km/h (0 Bft) N 0 0 min 0,000 mm 0 W/m 9,8 C 11,6 C 0,0 km/h (0 Bft) 97 %
19.06.2017 05:30 11,5 C 11,5 C 11,6 C 89 % 1020,2 hPa 0,0 l/m 0,0 km/h (0 Bft) W-NW 292 0 min 0,000 mm 5 W/m 9,8 C 11,5 C 1,6 km/h (1 Bft) 98 %
19.06.2017 05:40 11,5 C 11,5 C 11,5 C 89 % 1020,3 hPa 0,0 l/m 0,0 km/h (0 Bft) W-NW 292 0 min 0,000 mm 7 W/m 9,8 C 11,5 C 6,4 km/h (2 Bft) 97 %
19.06.2017 05:50 11,5 C 11,5 C 11,5 C 89 % 1020,4 hPa 0,0 l/m 0,0 km/h (0 Bft) W-NW 292 0 min 0,000 mm 9 W/m 9,8 C 11,5 C 1,6 km/h (1 Bft) 98 %
19.06.2017 06:00 11,4 C 11,4 C 11,5 C 89 % 1020,4 hPa 0,0 l/m 0,0 km/h (0 Bft) N 0 0 min 0,000 mm 11 W/m 9,7 C 11,4 C 0,0 km/h (0 Bft) 98 %
19.06.2017 06:10 11,5 C 11,4 C 11,5 C 89 % 1020,5 hPa 0,0 l/m 0,0 km/h (0 Bft) NW 315 0 min 0,000 mm 12 W/m 9,8 C 11,5 C 3,2 km/h (1 Bft) 97 %
19.06.2017 06:20 11,8 C 11,5 C 11,8 C 89 % 1020,4 hPa 0,0 l/m 0,0 km/h (0 Bft) NW 315 0 min 0,000 mm 14 W/m 10,0 C 11,8 C 1,6 km/h (1 Bft) 99 %
19.06.2017 06:30 12,0 C 11,8 C 12,0 C 89 % 1020,5 hPa 0,0 l/m 0,0 km/h (0 Bft) NW 315 0 min 0,000 mm 16 W/m 10,2 C 12,0 C 1,6 km/h (1 Bft) 99 %
19.06.2017 06:40 12,2 C 12,0 C 12,2 C 89 % 1020,4 hPa 0,0 l/m 0,0 km/h (0 Bft) NW 315 0 min 0,000 mm 18 W/m 10,4 C 12,2 C 4,8 km/h (1 Bft) 100 %
19.06.2017 06:50 12,4 C 12,2 C 12,4 C 89 % 1020,4 hPa 0,0 l/m 0,0 km/h (0 Bft) N 0 0 min 0,000 mm 18 W/m 10,6 C 12,4 C 0,0 km/h (0 Bft) 100 %
19.06.2017 07:00 12,7 C 12,4 C 12,7 C 89 % 1020,4 hPa 0,0 l/m 0,0 km/h (0 Bft) NW 315 0 min 0,000 mm 19 W/m 10,9 C 12,7 C 3,2 km/h (1 Bft) 99 %
19.06.2017 07:10 13,1 C 12,7 C 13,1 C 88 % 1020,5 hPa 0,0 l/m 0,0 km/h (0 Bft) NW 315 0 min 0,000 mm 21 W/m 11,2 C 13,1 C 1,6 km/h (1 Bft) 100 %
19.06.2017 07:20 13,6 C 13,1 C 13,6 C 86 % 1020,5 hPa 0,0 l/m 0,0 km/h (0 Bft) O-SO 112 0 min 0,000 mm 21 W/m 11,3 C 13,6 C 4,8 km/h (1 Bft) 100 %
19.06.2017 07:30 14,0 C 13,6 C 14,0 C 84 % 1020,5 hPa 0,0 l/m 0,0 km/h (0 Bft) O-SO 112 0 min 0,000 mm 23 W/m 11,3 C 14,0 C 3,2 km/h (1 Bft) 100 %
19.06.2017 07:40 14,5 C 14,0 C 14,5 C 83 % 1020,4 hPa 0,0 l/m 0,0 km/h (0 Bft) N-NW 337 0 min 0,000 mm 25 W/m 11,6 C 14,5 C 3,2 km/h (1 Bft) 100 %
19.06.2017 07:50 14,9 C 14,5 C 14,9 C 82 % 1020,5 hPa 0,0 l/m 0,0 km/h (0 Bft) N 360 0 min 0,000 mm 26 W/m 11,9 C 14,9 C 1,6 km/h (1 Bft) 100 %
19.06.2017 08:00 15,2 C 14,9 C 15,2 C 81 % 1020,5 hPa 0,0 l/m 0,0 km/h (0 Bft) N 0 0 min 0,025 mm 30 W/m 12,0 C 15,2 C 0,0 km/h (0 Bft) 100 %
19.06.2017 08:10 15,7 C 15,2 C 15,7 C 79 % 1020,6 hPa 0,0 l/m 0,0 km/h (0 Bft) N 0 0 min 0,000 mm 33 W/m 12,1 C 15,7 C 0,0 km/h (0 Bft) 100 %
19.06.2017 08:20 16,2 C 15,7 C 16,2 C 79 % 1020,6 hPa 0,0 l/m 0,0 km/h (0 Bft) N 0 10 min 0,000 mm 424 W/m 12,6 C 16,2 C 0,0 km/h (0 Bft) 100 %
19.06.2017 08:30 17,2 C 16,2 C 17,2 C 77 % 1020,6 hPa 0,0 l/m 0,0 km/h (0 Bft) N 0 10 min 0,000 mm 459 W/m 13,1 C 17,2 C 0,0 km/h (0 Bft) 100 %
19.06.2017 08:40 18,6 C 17,2 C 18,6 C 73 % 1020,5 hPa 0,0 l/m 0,0 km/h (0 Bft) O-SO 112 10 min 0,000 mm 489 W/m 13,7 C 18,6 C 4,8 km/h (1 Bft) 100 %
19.06.2017 08:50 19,6 C 18,6 C 19,6 C 70 % 1020,5 hPa 0,0 l/m 0,0 km/h (0 Bft) N 360 10 min 0,000 mm 519 W/m 14,0 C 19,6 C 6,4 km/h (2 Bft) 100 %
19.06.2017 09:00 20,6 C 19,7 C 20,6 C 69 % 1020,6 hPa 0,0 l/m 0,0 km/h (0 Bft) O 90 10 min 0,203 mm 548 W/m 14,7 C 20,6 C 9,7 km/h (2 Bft) 100 %
19.06.2017 09:10 21,6 C 20,7 C 21,6 C 64 % 1020,5 hPa 0,0 l/m 0,0 km/h (0 Bft) NO 45 10 min 0,000 mm 577 W/m 14,5 C 21,6 C 8,0 km/h (2 Bft) 100 %
19.06.2017 09:20 22,3 C 21,6 C 22,3 C 62 % 1020,5 hPa 0,0 l/m 0,0 km/h (0 Bft) O-SO 112 10 min 0,000 mm 601 W/m 14,7 C 22,3 C 11,3 km/h (2 Bft) 100 %
19.06.2017 09:30 22,7 C 22,3 C 22,7 C 58 % 1020,4 hPa 0,0 l/m 0,0 km/h (0 Bft) SO 135 10 min 0,000 mm 628 W/m 14,0 C 22,7 C 11,3 km/h (2 Bft) 100 %
19.06.2017 09:40 23,3 C 22,8 C 23,3 C 59 % 1020,3 hPa 0,0 l/m 0,0 km/h (0 Bft) O 90 10 min 0,000 mm 654 W/m 14,8 C 23,3 C 14,5 km/h (3 Bft) 100 %
19.06.2017 09:50 23,7 C 23,3 C 23,7 C 58 % 1020,3 hPa 0,0 l/m 1,6 km/h (1 Bft) O-SO 112 10 min 0,000 mm 677 W/m 14,9 C 23,7 C 14,5 km/h (3 Bft) 100 %
19.06.2017 10:00 24,3 C 23,7 C 24,3 C 54 % 1020,1 hPa 0,0 l/m 0,0 km/h (0 Bft) O 90 10 min 0,381 mm 701 W/m 14,4 C 24,3 C 4,8 km/h (1 Bft) 100 %
19.06.2017 10:10 24,3 C 24,3 C 24,5 C 55 % 1020,1 hPa 0,0 l/m 1,6 km/h (1 Bft) O-SO 112 10 min 0,000 mm 722 W/m 14,7 C 24,3 C 16,1 km/h (3 Bft) 100 %
19.06.2017 10:20 24,4 C 24,3 C 24,4 C 55 % 1020,0 hPa 0,0 l/m 1,6 km/h (1 Bft) O 90 10 min 0,000 mm 749 W/m 14,8 C 24,4 C 17,7 km/h (3 Bft) 100 %
19.06.2017 10:30 24,7 C 24,4 C 24,7 C 57 % 1019,9 hPa 0,0 l/m 1,6 km/h (1 Bft) O-SO 112 10 min 0,000 mm 766 W/m 15,6 C 24,7 C 16,1 km/h (3 Bft) 100 %
19.06.2017 10:40 24,9 C 24,7 C 24,9 C 53 % 1019,9 hPa 0,0 l/m 3,2 km/h (1 Bft) SO 135 10 min 0,000 mm 784 W/m 14,6 C 24,9 C 16,1 km/h (3 Bft) 100 %
19.06.2017 10:50 25,3 C 24,9 C 25,3 C 50 % 1019,9 hPa 0,0 l/m 3,2 km/h (1 Bft) S-SO 157 10 min 0,000 mm 805 W/m 14,1 C 25,3 C 24,1 km/h (4 Bft) 100 %
19.06.2017 11:00 25,3 C 25,2 C 25,3 C 52 % 1019,9 hPa 0,0 l/m 4,8 km/h (1 Bft) SO 135 10 min 0,508 mm 819 W/m 14,7 C 25,3 C 19,3 km/h (3 Bft) 100 %
19.06.2017 11:10 25,3 C 25,2 C 25,3 C 53 % 1019,8 hPa 0,0 l/m 3,2 km/h (1 Bft) SO 135 10 min 0,000 mm 838 W/m 15,0 C 25,3 C 17,7 km/h (3 Bft) 100 %
19.06.2017 11:20 25,8 C 25,3 C 25,8 C 48 % 1019,8 hPa 0,0 l/m 4,8 km/h (1 Bft) SO 135 10 min 0,000 mm 858 W/m 13,9 C 25,8 C 19,3 km/h (3 Bft) 100 %
19.06.2017 11:30 25,6 C 25,6 C 25,8 C 48 % 1019,8 hPa 0,0 l/m 8,0 km/h (2 Bft) SO 135 10 min 0,000 mm 872 W/m 13,8 C 25,2 C 22,5 km/h (4 Bft) 100 %
19.06.2017 11:40 25,6 C 25,6 C 25,7 C 48 % 1019,8 hPa 0,0 l/m 6,4 km/h (2 Bft) SO 135 10 min 0,000 mm 888 W/m 13,8 C 25,6 C 20,9 km/h (4 Bft) 100 %
19.06.2017 11:50 25,6 C 25,5 C 25,6 C 49 % 1019,7 hPa 0,0 l/m 8,0 km/h (2 Bft) SO 135 10 min 0,000 mm 896 W/m 14,1 C 25,2 C 22,5 km/h (4 Bft) 100 %
19.06.2017 12:00 26,0 C 25,6 C 26,0 C 47 % 1019,7 hPa 0,0 l/m 3,2 km/h (1 Bft) O-SO 112 10 min 0,584 mm 907 W/m 13,8 C 26,0 C 17,7 km/h (3 Bft) 100 %
19.06.2017 12:10 26,6 C 26,0 C 26,6 C 47 % 1019,7 hPa 0,0 l/m 1,6 km/h (1 Bft) SO 135 10 min 0,000 mm 916 W/m 14,3 C 26,6 C 11,3 km/h (2 Bft) 100 %
19.06.2017 12:20 27,0 C 26,6 C 27,0 C 49 % 1019,5 hPa 0,0 l/m 3,2 km/h (1 Bft) S-SO 157 10 min 0,000 mm 930 W/m 15,4 C 27,0 C 19,3 km/h (3 Bft) 100 %
19.06.2017 12:30 26,7 C 26,6 C 27,0 C 48 % 1019,3 hPa 0,0 l/m 6,4 km/h (2 Bft) O-SO 112 10 min 0,000 mm 937 W/m 14,8 C 26,7 C 19,3 km/h (3 Bft) 100 %
19.06.2017 12:40 27,0 C 26,7 C 27,0 C 48 % 1019,2 hPa 0,0 l/m 3,2 km/h (1 Bft) SO 135 10 min 0,000 mm 940 W/m 15,0 C 27,0 C 20,9 km/h (4 Bft) 100 %
19.06.2017 12:50 27,1 C 27,0 C 27,2 C 46 % 1019,1 hPa 0,0 l/m 3,2 km/h (1 Bft) O-SO 112 10 min 0,000 mm 946 W/m 14,5 C 27,1 C 19,3 km/h (3 Bft) 100 %
19.06.2017 13:00 27,1 C 27,1 C 27,2 C 48 % 1018,9 hPa 0,0 l/m 1,6 km/h (1 Bft) SO 135 10 min 0,635 mm 951 W/m 15,1 C 27,1 C 14,5 km/h (3 Bft) 100 %
19.06.2017 13:10 27,4 C 27,1 C 27,4 C 46 % 1018,7 hPa 0,0 l/m 4,8 km/h (1 Bft) O 90 10 min 0,000 mm 951 W/m 14,7 C 27,4 C 16,1 km/h (3 Bft) 100 %
19.06.2017 13:20 27,7 C 27,4 C 27,7 C 45 % 1018,8 hPa 0,0 l/m 4,8 km/h (1 Bft) SO 135 10 min 0,000 mm 951 W/m 14,7 C 27,7 C 14,5 km/h (3 Bft) 100 %
19.06.2017 13:30 27,7 C 27,6 C 27,7 C 46 % 1018,8 hPa 0,0 l/m 6,4 km/h (2 Bft) O-SO 112 10 min 0,000 mm 951 W/m 15,0 C 27,7 C 16,1 km/h (3 Bft) 100 %
19.06.2017 13:40 27,7 C 27,7 C 27,9 C 44 % 1018,8 hPa 0,0 l/m 6,4 km/h (2 Bft) SO 135 10 min 0,000 mm 953 W/m 14,3 C 27,7 C 20,9 km/h (4 Bft) 100 %
19.06.2017 13:50 27,8 C 27,7 C 27,8 C 43 % 1018,5 hPa 0,0 l/m 6,4 km/h (2 Bft) S 180 10 min 0,000 mm 953 W/m 14,1 C 27,8 C 19,3 km/h (3 Bft) 100 %
19.06.2017 14:00 27,8 C 27,8 C 27,9 C 42 % 1018,6 hPa 0,0 l/m 4,8 km/h (1 Bft) SO 135 10 min 0,660 mm 942 W/m 13,7 C 27,8 C 20,9 km/h (4 Bft) 100 %
19.06.2017 14:10 27,9 C 27,8 C 27,9 C 43 % 1018,3 hPa 0,0 l/m 1,6 km/h (1 Bft) O-SO 112 10 min 0,000 mm 937 W/m 14,1 C 27,9 C 16,1 km/h (3 Bft) 100 %
19.06.2017 14:20 28,1 C 27,9 C 28,1 C 43 % 1018,2 hPa 0,0 l/m 0,0 km/h (0 Bft) O-SO 112 10 min 0,000 mm 928 W/m 14,3 C 28,1 C 6,4 km/h (2 Bft) 100 %
19.06.2017 14:30 28,3 C 28,1 C 28,3 C 40 % 1018,2 hPa 0,0 l/m 1,6 km/h (1 Bft) SO 135 10 min 0,000 mm 930 W/m 13,4 C 28,3 C 17,7 km/h (3 Bft) 100 %
19.06.2017 14:40 28,2 C 28,2 C 28,3 C 39 % 1018,1 hPa 0,0 l/m 4,8 km/h (1 Bft) SO 135 10 min 0,000 mm 914 W/m 12,9 C 28,2 C 20,9 km/h (4 Bft) 99 %
19.06.2017 14:50 28,2 C 28,1 C 28,2 C 42 % 1017,8 hPa 0,0 l/m 1,6 km/h (1 Bft) O-SO 112 10 min 0,000 mm 907 W/m 14,0 C 28,2 C 16,1 km/h (3 Bft) 100 %
19.06.2017 15:00 28,1 C 28,1 C 28,3 C 42 % 1017,8 hPa 0,0 l/m 1,6 km/h (1 Bft) O-SO 112 10 min 0,610 mm 895 W/m 14,0 C 28,1 C 11,3 km/h (2 Bft) 100 %
19.06.2017 15:10 28,2 C 28,1 C 28,2 C 42 % 1017,7 hPa 0,0 l/m 3,2 km/h (1 Bft) SO 135 10 min 0,000 mm 882 W/m 14,0 C 28,2 C 17,7 km/h (3 Bft) 100 %
19.06.2017 15:20 28,3 C 28,1 C 28,3 C 44 % 1017,7 hPa 0,0 l/m 1,6 km/h (1 Bft) S-SO 157 10 min 0,000 mm 870 W/m 14,9 C 28,3 C 11,3 km/h (2 Bft) 100 %
19.06.2017 15:30 28,5 C 28,3 C 28,5 C 41 % 1017,5 hPa 0,0 l/m 0,0 km/h (0 Bft) S-SW 202 10 min 0,000 mm 260 W/m 13,9 C 28,5 C 9,7 km/h (2 Bft) 100 %
19.06.2017 15:40 28,6 C 28,5 C 28,6 C 44 % 1017,5 hPa 0,0 l/m 1,6 km/h (1 Bft) O 90 10 min 0,000 mm 181 W/m 15,1 C 28,6 C 12,9 km/h (3 Bft) 100 %
19.06.2017 15:50 28,9 C 28,7 C 28,9 C 43 % 1017,4 hPa 0,0 l/m 0,0 km/h (0 Bft) S 180 10 min 0,000 mm 192 W/m 15,0 C 28,9 C 9,7 km/h (2 Bft) 100 %
19.06.2017 16:00 28,8 C 28,8 C 29,0 C 40 % 1017,2 hPa 0,0 l/m 1,6 km/h (1 Bft) O 90 10 min 0,305 mm 795 W/m 13,8 C 28,8 C 9,7 km/h (2 Bft) 100 %
19.06.2017 16:10 28,8 C 28,8 C 28,9 C 43 % 1017,2 hPa 0,0 l/m 1,6 km/h (1 Bft) SO 135 10 min 0,000 mm 780 W/m 15,0 C 28,8 C 14,5 km/h (3 Bft) 100 %
19.06.2017 16:20 28,8 C 28,8 C 28,9 C 43 % 1017,1 hPa 0,0 l/m 1,6 km/h (1 Bft) SO 135 10 min 0,000 mm 761 W/m 15,0 C 28,8 C 9,7 km/h (2 Bft) 100 %
19.06.2017 16:30 28,8 C 28,8 C 28,8 C 44 % 1017,0 hPa 0,0 l/m 0,0 km/h (0 Bft) O-NO 67 10 min 0,000 mm 738 W/m 15,3 C 28,8 C 8,0 km/h (2 Bft) 100 %
19.06.2017 16:40 28,8 C 28,8 C 28,8 C 41 % 1016,9 hPa 0,0 l/m 0,0 km/h (0 Bft) SO 135 10 min 0,000 mm 431 W/m 14,2 C 28,8 C 8,0 km/h (2 Bft) 100 %
19.06.2017 16:50 28,6 C 28,6 C 28,8 C 40 % 1016,8 hPa 0,0 l/m 1,6 km/h (1 Bft) SO 135 0 min 0,000 mm 67 W/m 13,7 C 28,6 C 8,0 km/h (2 Bft) 99 %
19.06.2017 17:00 28,6 C 28,6 C 28,6 C 41 % 1016,6 hPa 0,0 l/m 1,6 km/h (1 Bft) O-SO 112 0 min 0,305 mm 60 W/m 14,0 C 28,6 C 11,3 km/h (2 Bft) 100 %
19.06.2017 17:10 28,8 C 28,6 C 28,8 C 41 % 1016,7 hPa 0,0 l/m 0,0 km/h (0 Bft) O 90 0 min 0,000 mm 60 W/m 14,2 C 28,8 C 6,4 km/h (2 Bft) 100 %
19.06.2017 17:20 29,0 C 28,8 C 29,0 C 40 % 1016,5 hPa 0,0 l/m 0,0 km/h (0 Bft) S-SW 202 0 min 0,000 mm 60 W/m 14,0 C 29,0 C 8,0 km/h (2 Bft) 100 %
19.06.2017 17:30 28,9 C 28,9 C 29,0 C 39 % 1016,4 hPa 0,0 l/m 0,0 km/h (0 Bft) O 90 0 min 0,000 mm 62 W/m 13,5 C 28,9 C 8,0 km/h (2 Bft) 100 %
19.06.2017 17:40 28,9 C 28,9 C 28,9 C 41 % 1016,4 hPa 0,0 l/m 0,0 km/h (0 Bft) NW 315 0 min 0,000 mm 60 W/m 14,3 C 28,9 C 4,8 km/h (1 Bft) 100 %
19.06.2017 17:50 29,1 C 28,9 C 29,1 C 40 % 1016,3 hPa 0,0 l/m 0,0 km/h (0 Bft) S-SW 202 0 min 0,000 mm 62 W/m 14,1 C 29,1 C 11,3 km/h (2 Bft) 100 %
19.06.2017 18:00 29,3 C 29,1 C 29,3 C 41 % 1016,3 hPa 0,0 l/m 0,0 km/h (0 Bft) S-SW 202 0 min 0,051 mm 62 W/m 14,7 C 29,3 C 1,6 km/h (1 Bft) 100 %
19.06.2017 18:10 29,2 C 29,2 C 29,3 C 42 % 1016,2 hPa 0,0 l/m 0,0 km/h (0 Bft) W 270 0 min 0,000 mm 53 W/m 14,9 C 29,2 C 1,6 km/h (1 Bft) 100 %
19.06.2017 18:20 28,9 C 28,9 C 29,2 C 43 % 1016,1 hPa 0,0 l/m 0,0 km/h (0 Bft) NW 315 0 min 0,000 mm 54 W/m 15,0 C 28,9 C 6,4 km/h (2 Bft) 100 %
19.06.2017 18:30 28,8 C 28,8 C 28,9 C 43 % 1016,1 hPa 0,0 l/m 0,0 km/h (0 Bft) NW 315 0 min 0,000 mm 49 W/m 15,0 C 28,8 C 8,0 km/h (2 Bft) 100 %
19.06.2017 18:40 28,7 C 28,7 C 28,8 C 43 % 1016,0 hPa 0,0 l/m 0,0 km/h (0 Bft) N 0 0 min 0,000 mm 47 W/m 14,9 C 28,7 C 0,0 km/h (0 Bft) 100 %
19.06.2017 18:50 28,6 C 28,6 C 28,7 C 46 % 1016,0 hPa 0,0 l/m 0,0 km/h (0 Bft) N 360 0 min 0,000 mm 49 W/m 15,8 C 28,6 C 1,6 km/h (1 Bft) 100 %
19.06.2017 19:00 28,4 C 28,4 C 28,6 C 44 % 1015,8 hPa 0,0 l/m 0,0 km/h (0 Bft) N 360 0 min 0,051 mm 51 W/m 14,9 C 28,4 C 1,6 km/h (1 Bft) 100 %
19.06.2017 19:10 28,3 C 28,3 C 28,4 C 46 % 1015,9 hPa 0,0 l/m 0,0 km/h (0 Bft) N 360 0 min 0,000 mm 74 W/m 15,6 C 28,3 C 1,6 km/h (1 Bft) 100 %
19.06.2017 19:20 28,1 C 28,1 C 28,3 C 48 % 1015,9 hPa 0,0 l/m 0,0 km/h (0 Bft) N 0 0 min 0,000 mm 63 W/m 16,0 C 28,1 C 0,0 km/h (0 Bft) 100 %
19.06.2017 19:30 27,8 C 27,8 C 28,1 C 48 % 1015,7 hPa 0,0 l/m 0,0 km/h (0 Bft) N 0 10 min 0,000 mm 207 W/m 15,8 C 27,8 C 0,0 km/h (0 Bft) 100 %
19.06.2017 19:40 27,5 C 27,5 C 27,8 C 49 % 1015,8 hPa 0,0 l/m 0,0 km/h (0 Bft) N 0 10 min 0,000 mm 218 W/m 15,8 C 27,5 C 0,0 km/h (0 Bft) 100 %
19.06.2017 19:50 27,2 C 27,2 C 27,5 C 49 % 1015,8 hPa 0,0 l/m 0,0 km/h (0 Bft) N 0 10 min 0,000 mm 200 W/m 15,5 C 27,2 C 0,0 km/h (0 Bft) 100 %
19.06.2017 20:00 26,8 C 26,8 C 27,1 C 50 % 1015,7 hPa 0,0 l/m 0,0 km/h (0 Bft) N 0 0 min 0,076 mm 35 W/m 15,5 C 26,8 C 0,0 km/h (0 Bft) 100 %
19.06.2017 20:10 26,4 C 26,4 C 26,8 C 51 % 1015,7 hPa 0,0 l/m 0,0 km/h (0 Bft) N 0 0 min 0,000 mm 32 W/m 15,4 C 26,4 C 0,0 km/h (0 Bft) 100 %
19.06.2017 20:20 26,0 C 26,0 C 26,4 C 52 % 1015,8 hPa 0,0 l/m 0,0 km/h (0 Bft) N 0 0 min 0,000 mm 28 W/m 15,4 C 26,0 C 0,0 km/h (0 Bft) 100 %
19.06.2017 20:30 25,7 C 25,7 C 26,0 C 54 % 1015,7 hPa 0,0 l/m 0,0 km/h (0 Bft) N 0 0 min 0,000 mm 26 W/m 15,7 C 25,7 C 0,0 km/h (0 Bft) 100 %
19.06.2017 20:40 25,2 C 25,2 C 25,6 C 55 % 1015,7 hPa 0,0 l/m 0,0 km/h (0 Bft) N 0 0 min 0,000 mm 23 W/m 15,5 C 25,2 C 0,0 km/h (0 Bft) 100 %
19.06.2017 20:50 24,8 C 24,8 C 25,2 C 55 % 1015,7 hPa 0,0 l/m 0,0 km/h (0 Bft) N 0 0 min 0,000 mm 19 W/m 15,1 C 24,8 C 0,0 km/h (0 Bft) 100 %
19.06.2017 21:00 24,4 C 24,4 C 24,8 C 57 % 1015,6 hPa 0,0 l/m 0,0 km/h (0 Bft) N 0 0 min 0,025 mm 18 W/m 15,3 C 24,4 C 0,0 km/h (0 Bft) 100 %
19.06.2017 21:10 24,1 C 24,1 C 24,4 C 54 % 1015,6 hPa 0,0 l/m 0,0 km/h (0 Bft) N 0 0 min 0,000 mm 14 W/m 14,2 C 24,1 C 0,0 km/h (0 Bft) 100 %
19.06.2017 21:20 23,7 C 23,7 C 24,1 C 53 % 1015,6 hPa 0,0 l/m 0,0 km/h (0 Bft) N 0 0 min 0,000 mm 9 W/m 13,5 C 23,7 C 0,0 km/h (0 Bft) 100 %
19.06.2017 21:30 23,4 C 23,4 C 23,7 C 55 % 1015,6 hPa 0,0 l/m 0,0 km/h (0 Bft) N 0 0 min 0,000 mm 0 W/m 13,8 C 23,4 C 0,0 km/h (0 Bft) 100 %
19.06.2017 21:40 23,1 C 23,1 C 23,4 C 54 % 1015,6 hPa 0,0 l/m 0,0 km/h (0 Bft) N 0 0 min 0,000 mm 0 W/m 13,3 C 23,1 C 0,0 km/h (0 Bft) 100 %
19.06.2017 21:50 22,7 C 22,7 C 23,1 C 54 % 1015,7 hPa 0,0 l/m 0,0 km/h (0 Bft) N 0 0 min 0,000 mm 0 W/m 12,9 C 22,7 C 0,0 km/h (0 Bft) 100 %
19.06.2017 22:00 22,3 C 22,3 C 22,7 C 56 % 1015,8 hPa 0,0 l/m 0,0 km/h (0 Bft) N 0 0 min 0,025 mm 0 W/m 13,1 C 22,3 C 0,0 km/h (0 Bft) 99 %
19.06.2017 22:10 21,8 C 21,8 C 22,3 C 57 % 1015,8 hPa 0,0 l/m 0,0 km/h (0 Bft) N 0 0 min 0,000 mm 0 W/m 12,9 C 21,8 C 0,0 km/h (0 Bft) 100 %
19.06.2017 22:20 21,4 C 21,4 C 21,8 C 59 % 1015,8 hPa 0,0 l/m 0,0 km/h (0 Bft) N 0 0 min 0,000 mm 0 W/m 13,0 C 21,4 C 0,0 km/h (0 Bft) 100 %
19.06.2017 22:40 20,7 C 20,7 C 21,8 C 62 % 1015,8 hPa 0,0 l/m 0,0 km/h (0 Bft) N-NO 12 0 min 0,000 mm 0 W/m 13,2 C 20,7 C 0,0 km/h (0 Bft) 97 %
19.06.2017 22:50 20,3 C 20,3 C 20,7 C 63 % 1015,8 hPa 0,0 l/m 0,0 km/h (0 Bft) N 0 0 min 0,000 mm 0 W/m 13,0 C 20,3 C 0,0 km/h (0 Bft) 100 %
19.06.2017 23:00 20,0 C 20,0 C 20,3 C 65 % 1015,8 hPa 0,0 l/m 0,0 km/h (0 Bft) N 0 0 min 0,025 mm 0 W/m 13,2 C 20,0 C 0,0 km/h (0 Bft) 100 %
19.06.2017 23:10 19,7 C 19,7 C 20,0 C 68 % 1015,8 hPa 0,0 l/m 0,0 km/h (0 Bft) N 0 0 min 0,000 mm 0 W/m 13,6 C 19,7 C 0,0 km/h (0 Bft) 100 %
19.06.2017 23:20 19,3 C 19,3 C 19,7 C 70 % 1015,8 hPa 0,0 l/m 0,0 km/h (0 Bft) N 0 0 min 0,000 mm 0 W/m 13,7 C 19,3 C 0,0 km/h (0 Bft) 99 %
19.06.2017 23:30 19,0 C 19,0 C 19,3 C 73 % 1015,8 hPa 0,0 l/m 0,0 km/h (0 Bft) N 0 0 min 0,000 mm 0 W/m 14,0 C 19,0 C 0,0 km/h (0 Bft) 100 %
19.06.2017 23:40 18,6 C 18,6 C 19,0 C 73 % 1015,7 hPa 0,0 l/m 0,0 km/h (0 Bft) N-NO 22 0 min 0,000 mm 0 W/m 13,7 C 18,6 C 4,8 km/h (1 Bft) 100 %
19.06.2017 23:50 18,3 C 18,3 C 18,6 C 73 % 1015,7 hPa 0,0 l/m 0,0 km/h (0 Bft) N-NO 22 0 min 0,000 mm 0 W/m 13,4 C 18,3 C 1,6 km/h (1 Bft) 100 %
_ Min-Zeit 06:00 06:00 05:40 14:40 21:00 - 00:00 - - - - - 06:00 06:00 02:00 00:40
Minimum _ 11,4 C 11,4 C 11,5 C 39 % 1015,6 hPa - 0,0 km/h (0 Bft) - - - - - 9,7 C 11,4 C 0,0 km/h (0 Bft) 97 %
_ Max-Zeit 18:00 18:10 18:00 05:10 00:00 00:00 11:30 - - 08:20 14:00 13:40 19:20 18:00 10:50 07:10
Maximum _ 29,3 C 29,2 C 29,3 C 89 % 1021,4 hPa 0,0 l/m 8,0 km/h
SO (2 Bft)
- - 10 min 0,660 mm 953 W/m 16,0 C 29,3 C 24,1 km/h
O (4 Bft)
100 %
Durchschnitt _ 21,6 C 21,4 C 21,7 C 62 % 1018,7 hPa #0,0 l/m 0,9 km/h (0 Bft) SO - #9:00 h #4,569 mm 427 W/m 13,2 C 21,6 C 6,6 km/h (2 Bft) 99 %
PRIVATE WETTERSTATION BILLIGHEIM-ALLFELD - www.neckar-odenwald-wetter.de - Holger Sonntag